ONEWEB-0080 (45426 NORAD) Tracking and Keplerian Element Data

This shows tracking and keplerian element data for the satellite.

Feedback or suggestion? Click here.




ElementValue
Catalog45426
NameONEWEB-0080
Epoch Orbit96
Epoch Day88.08094624
Epoch Year2020
RAAN136.649
Inclination87.3999
Eccentricity0.0024701
Argument of Perigee275.8594
Mean Anonmoly83.9845
Mean Motion15.38560455
Decay Rate2.375E-05
L11 45426U 20020C 20088.08094624 .00002375 00000-0 60674-4 0 9990
L22 45426 87.3999 136.6490 0024701 275.8594 83.9845 15.38560455 965

Live tracking and technical data element details for ONEWEB-0080 (NORAD 45426). ONEWEB-0080 can be tracked NOW for your location showing map with azimuth and elevation plus other details from your city location.

Track the satellite on the map from your city or location and see movement details for azimuth, elevation, latitude, longitude, range, height, and movement on the map or in text.







IsCatalogInMostPopularTable: catalog: 45426, numindb: -1

Insert: records affected: 1


GetName: 45426 ONEWEB-0080

Hit Count: inserted at: Tue, 31 Mar 2020 12:56:39 GMT